[[{"header":{"parameterUnit":"m.s-1","parameterCategory":1,"la1":30.2991,"la2":30.254,"lo1":-89.0895,"lo2":-89.0444,"dy":0.0017,"dx":0.0017,"nx":28,"ny":28,"refTime":"2024-10-09T03:00:00:Z","depth":0,"parameterNumber":2,"parameterNumberName":"U-component_of_WINDS"},"data":[0,0,0,0,0,0,0,0,0,0,0,0,0,0,0,0,0,0,0,0,0,0,0,0,0,0,0,0,0,0,0,0,0,0,0,0,0,0,0,0,0,0,0,0,0,0,0,0,0,0,0,0,0,0,0,0,0,0,-1.6561,-1.6561,0,-1.6589,-1.659,-1.659,-1.6618,-1.6618,-1.6619,-1.6619,-1.6648,-1.6649,-1.6649,0,0,0,0,0,0,0,0,0,0,0,0,0,-1.6532,-1.6532,-1.6561,-1.6561,-1.6562,-1.6589,-1.659,-1.659,-1.6618,-1.6618,-1.6619,-1.6619,-1.6648,-1.6649,-1.6649,0,0,0,0,0,0,0,0,0,0,0,0,0,-1.655,-1.6532,-1.6561,-1.6579,-1.6581,-1.6589,-1.659,-1.659,-1.6618,-1.6618,-1.6619,-1.6619,-1.6648,-1.6648,-1.6649,-1.6642,0,0,-1.6651,-1.6651,0,0,0,0,0,0,0,0,-1.6549,-1.6552,-1.6576,-1.6578,-1.658,-1.6601,-1.659,-1.6607,-1.6618,-1.6604,-1.6619,-1.662,-1.6632,-1.6634,-1.6638,-1.6643,-1.6645,-1.6651,-1.6652,-1.6652,-1.6652,0,0,0,0,0,0,0,-1.6548,-1.655,-1.6572,-1.6576,-1.6579,-1.6586,-1.6589,-1.6593,-1.6614,-1.6605,-1.6607,-1.661,-1.6633,-1.6637,-1.6639,-1.6645,-1.6651,-1.6652,-1.6652,-1.6652,-1.6646,-1.6646,0,0,0,0,0,0,-1.6544,-1.6549,-1.6571,-1.6573,-1.6566,-1.6586,-1.6589,-1.6593,-1.6614,-1.6618,-1.661,-1.6611,-1.6636,-1.6638,-1.664,-1.6633,-1.6652,-1.6652,-1.6653,-1.6647,-1.6646,-1.6645,0,0,0,0,0,0,-1.6543,-1.6546,-1.657,-1.6562,-1.6565,-1.6586,-1.659,-1.6594,-1.6598,-1.6618,-1.6622,-1.661,-1.6636,-1.6639,-1.6641,-1.6634,-1.6653,-1.6653,-1.6647,-1.6646,-1.6646,-1.6618,0,0,0,0,0,0,-1.6542,-1.6545,-1.6542,-1.6561,-1.6566,-1.657,-1.6589,-1.6594,-1.6599,-1.6601,-1.6619,-1.6623,-1.6637,-1.664,-1.6642,-1.6635,-1.6654,-1.6648,-1.6647,-1.6646,-1.6619,-1.6616,-1.6613,0,0,0,0,0,-1.6541,-1.6534,-1.6542,-1.6545,-1.6563,-1.657,-1.6572,-1.6589,-1.6598,-1.6596,-1.6609,-1.6622,-1.6635,-1.664,-1.6642,-1.6636,-1.6649,-1.6647,-1.6646,-1.6621,-1.6617,-1.6613,0,0,0,0,0,0,-1.6513,-1.6536,-1.6546,-1.6545,-1.6555,-1.6575,-1.6572,-1.6584,-1.6592,-1.6594,-1.6615,-1.6619,-1.6618,-1.6628,-1.6633,-1.663,-1.6644,-1.6643,-1.6624,-1.662,-1.6617,-1.6614,-1.6654,0,0,0,0,0,-1.6507,-1.6511,-1.6531,-1.6528,-1.6532,-1.6551,-1.6555,-1.6567,-1.6579,-1.6583,-1.6597,-1.6607,-1.6614,-1.6618,-1.6625,-1.6621,-1.6625,-1.6618,-1.6615,-1.6612,-1.6611,-1.6609,-1.6606,-1.6641,-1.6641,-1.6641,0,0,-1.6493,-1.6507,-1.6508,-1.6522,-1.6532,-1.6535,-1.6555,-1.6558,-1.656,-1.6584,-1.6586,-1.6597,-1.661,-1.6609,-1.661,-1.6617,-1.6602,-1.6611,-1.6609,-1.6608,-1.6608,-1.6604,-1.6601,-1.664,-1.6641,-1.6641,0,0,-1.6471,-1.6482,-1.648,-1.6489,-1.6503,-1.6516,-1.6516,-1.6534,-1.6541,-1.6544,-1.6562,-1.6566,-1.6577,-1.6586,-1.6592,-1.6573,-1.6586,-1.6575,-1.6559,-1.6557,-1.6554,-1.6552,-1.6544,-1.6541,-1.6574,-1.6574,-1.6574,0,-1.6452,-1.6458,-1.6477,-1.6479,-1.6484,-1.6506,-1.6504,-1.6513,-1.6529,-1.6532,-1.654,-1.6554,-1.6565,-1.6567,-1.6562,-1.6567,-1.6567,-1.6572,-1.6553,-1.6551,-1.6549,-1.6542,-1.6539,-1.6573,-1.6573,-1.6573,-1.6573,0,-1.6434,-1.6438,-1.6435,-1.645,-1.6455,-1.6455,-1.6474,-1.6478,-1.649,-1.6502,-1.6504,-1.6519,-1.6529,-1.653,-1.6542,-1.6533,-1.6537,-1.6549,-1.6563,-1.6544,-1.6537,-1.6535,-1.6571,-1.6571,-1.6572,-1.6572,0,0,-1.6393,-1.6419,-1.6417,-1.6424,-1.6442,-1.6445,-1.6447,-1.6457,-1.6459,-1.647,-1.6471,-1.648,-1.6491,-1.6498,-1.6511,-1.651,-1.6494,-1.6522,-1.6522,-1.6515,-1.6484,-1.6474,-1.647,-1.6503,-1.6503,-1.6502,-1.6483,0,-1.6372,-1.6375,-1.6392,-1.639,-1.6394,-1.6415,-1.6417,-1.6428,-1.6439,-1.6444,-1.6458,-1.6463,-1.6478,-1.6482,-1.6482,-1.6495,-1.6487,-1.6497,-1.6504,-1.6504,-1.6498,-1.6467,-1.6457,-1.6437,-1.648,-1.648,-1.648,0,-1.6348,-1.6357,-1.6355,-1.6373,-1.6375,-1.6376,-1.6386,-1.6391,-1.6404,-1.6413,-1.6421,-1.6436,-1.6439,-1.6453,-1.6457,-1.6463,-1.6468,-1.6475,-1.6474,-1.6474,-1.6489,-1.6465,-1.6431,-1.6428,-1.6476,-1.6477,-1.6477,0,-1.6316,-1.6328,-1.6328,-1.6334,-1.6355,-1.6355,-1.6364,-1.6378,-1.6383,-1.6393,-1.6396,-1.6406,-1.6411,-1.6419,-1.6436,-1.6445,-1.6438,-1.6454,-1.6445,-1.6444,-1.6441,-1.644,-1.6406,-1.6446,-1.6446,-1.6446,-1.6446,0,-1.629,-1.6287,-1.6314,-1.6314,-1.6312,-1.6333,-1.6331,-1.6342,-1.6354,-1.6357,-1.6377,-1.6379,-1.6403,-1.6408,-1.6422,-1.6423,-1.6426,-1.6432,-1.6436,-1.6429,-1.6428,-1.6431,-1.6432,-1.6446,-1.6446,-1.6446,-1.6446,0,-1.6253,-1.6271,-1.6272,-1.6293,-1.6298,-1.6296,-1.6313,-1.6314,-1.6328,-1.6331,-1.6333,-1.6354,-1.6361,-1.638,-1.6392,-1.6401,-1.6398,-1.6405,-1.6393,-1.6395,-1.6384,-1.6384,-1.6348,-1.6344,-1.6388,-1.6388,-1.6388,0,-1.6234,-1.6232,-1.6253,-1.6256,-1.6264,-1.6269,-1.6274,-1.6296,-1.63,-1.6316,-1.6315,-1.6324,-1.6331,-1.6342,-1.6358,-1.6368,-1.6374,-1.6362,-1.6376,-1.637,-1.6373,-1.6372,-1.6371,-1.6357,-1.6357,-1.6356,-1.6356,0,-1.6198,-1.6207,-1.6214,-1.6223,-1.6229,-1.6238,-1.6248,-1.625,-1.6273,-1.6278,-1.6285,-1.6291,-1.6303,-1.6311,-1.6324,-1.6334,-1.6348,-1.6352,-1.635,-1.6342,-1.6334,-1.6337,-1.6382,-1.6352,-1.6352,-1.6353,-1.6353,-1.6353,-1.6168,-1.6168,-1.6182,-1.6189,-1.6199,-1.6208,-1.621,-1.6224,-1.623,-1.6241,-1.6254,-1.626,-1.6274,-1.6292,-1.6301,-1.6306,-1.6314,-1.6312,-1.6311,-1.6309,-1.6306,-1.6335,-1.6309,-1.6309,-1.6309,-1.6309,-1.6309,0,-1.6132,-1.6143,-1.6149,-1.6162,-1.6167,-1.6182,-1.6194,-1.6198,-1.6202,-1.6215,-1.6222,-1.623,-1.6239,-1.6256,-1.6267,-1.6267,-1.6274,-1.6269,-1.6268,-1.627,-1.6299,-1.6299,-1.6263,-1.6263,-1.6263,-1.6263,-1.6263,-1.6263,-1.6113,-1.6113,-1.6124,-1.613,-1.6141,-1.6146,-1.6152,-1.616,-1.617,-1.6178,-1.6185,-1.6197,-1.6211,-1.6223,-1.6231,-1.6236,-1.6238,-1.6231,-1.6238,-1.6264,-1.6268,-1.6272,-1.6272,-1.6231,-1.6231,-1.6208,-1.6208,-1.6208]},{"header":{"parameterUnit":"m.s-1","parameterCategory":1,"la1":30.2991,"la2":30.254,"lo1":-89.0895,"lo2":-89.0444,"dy":0.0017,"dx":0.0017,"nx":28,"ny":28,"refTime":"2024-10-09T03:00:00:Z","depth":0,"parameterNumber":3,"parameterNumberName":"V-component_of_WINDS"},"data":[0,0,0,0,0,0,0,0,0,0,0,0,0,0,0,0,0,0,0,0,0,0,0,0,0,0,0,0,0,0,0,0,0,0,0,0,0,0,0,0,0,0,0,0,0,0,0,0,0,0,0,0,0,0,0,0,0,0,-3.7634,-3.7634,0,-3.7627,-3.7627,-3.7627,-3.7654,-3.7655,-3.7656,-3.7656,-3.7646,-3.7645,-3.7644,0,0,0,0,0,0,0,0,0,0,0,0,0,-3.7666,-3.7666,-3.7634,-3.7634,-3.7633,-3.7628,-3.7627,-3.7627,-3.7654,-3.7655,-3.7656,-3.7657,-3.7646,-3.7645,-3.7644,0,0,0,0,0,0,0,0,0,0,0,0,0,-3.7655,-3.7665,-3.7634,-3.7646,-3.7647,-3.7628,-3.7627,-3.7627,-3.7654,-3.7655,-3.7656,-3.7657,-3.7647,-3.7645,-3.7644,-3.761,0,0,-3.7639,-3.7638,0,0,0,0,0,0,0,0,-3.7656,-3.7654,-3.7644,-3.7645,-3.7646,-3.7643,-3.7635,-3.7621,-3.7653,-3.7651,-3.7656,-3.7658,-3.7644,-3.7642,-3.7639,-3.761,-3.7609,-3.7639,-3.7638,-3.7637,-3.7637,0,0,0,0,0,0,0,-3.7657,-3.7654,-3.7631,-3.7644,-3.7645,-3.7651,-3.7651,-3.7633,-3.7641,-3.7651,-3.7653,-3.7653,-3.7644,-3.764,-3.7638,-3.7609,-3.7639,-3.7638,-3.7637,-3.7636,-3.7556,-3.7555,0,0,0,0,0,0,-3.7656,-3.7655,-3.7631,-3.7631,-3.7654,-3.765,-3.765,-3.7643,-3.7641,-3.7642,-3.7652,-3.7654,-3.7642,-3.764,-3.7638,-3.7601,-3.7637,-3.7636,-3.7635,-3.7557,-3.7556,-3.7554,0,0,0,0,0,0,-3.7657,-3.7654,-3.7631,-3.7644,-3.7641,-3.7648,-3.764,-3.7642,-3.7638,-3.7641,-3.7642,-3.7646,-3.7643,-3.764,-3.7618,-3.7601,-3.7635,-3.7634,-3.7559,-3.7557,-3.7555,-3.7525,0,0,0,0,0,0,-3.7658,-3.7654,-3.7641,-3.7643,-3.764,-3.7612,-3.7639,-3.7641,-3.7635,-3.7638,-3.7636,-3.7637,-3.7644,-3.762,-3.7617,-3.7599,-3.7633,-3.756,-3.7558,-3.7556,-3.7528,-3.7523,-3.7518,0,0,0,0,0,-3.7659,-3.7631,-3.7641,-3.7638,-3.7625,-3.7611,-3.7609,-3.7619,-3.7634,-3.7621,-3.7624,-3.7637,-3.7604,-3.7618,-3.7614,-3.7596,-3.7561,-3.7559,-3.7556,-3.753,-3.7524,-3.7518,0,0,0,0,0,0,-3.7625,-3.7632,-3.7642,-3.7615,-3.7612,-3.7615,-3.7599,-3.7611,-3.7603,-3.7606,-3.7618,-3.7617,-3.7593,-3.7592,-3.7608,-3.7565,-3.7585,-3.7581,-3.7566,-3.7561,-3.7556,-3.7556,-3.7631,0,0,0,0,0,-3.7615,-3.7604,-3.761,-3.7585,-3.7584,-3.7592,-3.7586,-3.7594,-3.7591,-3.759,-3.7591,-3.7587,-3.7576,-3.7568,-3.7558,-3.7528,-3.7529,-3.7514,-3.7509,-3.7505,-3.7502,-3.7489,-3.7483,-3.7546,-3.7546,-3.7546,0,0,-3.7593,-3.7595,-3.7587,-3.7578,-3.7577,-3.7565,-3.7591,-3.7576,-3.7567,-3.7587,-3.7567,-3.7568,-3.7564,-3.7539,-3.7527,-3.7537,-3.7485,-3.7502,-3.7499,-3.7498,-3.7485,-3.7479,-3.7474,-3.7544,-3.7544,-3.7544,0,0,-3.7547,-3.7547,-3.7528,-3.7527,-3.7527,-3.7533,-3.7529,-3.7531,-3.7533,-3.7513,-3.7529,-3.7519,-3.7499,-3.7497,-3.7493,-3.745,-3.7462,-3.7446,-3.7421,-3.7408,-3.7403,-3.7399,-3.7385,-3.738,-3.7443,-3.7443,-3.7443,0,-3.7519,-3.7502,-3.7516,-3.7502,-3.7498,-3.7519,-3.75,-3.7498,-3.7493,-3.749,-3.7502,-3.748,-3.7479,-3.7454,-3.7444,-3.744,-3.7436,-3.7446,-3.7403,-3.7399,-3.7395,-3.7382,-3.7376,-3.7441,-3.7441,-3.7442,-3.7442,0,-3.7469,-3.7457,-3.7442,-3.744,-3.7435,-3.7417,-3.7429,-3.7422,-3.7432,-3.7437,-3.7418,-3.7418,-3.7409,-3.7404,-3.7412,-3.7381,-3.7388,-3.7401,-3.7421,-3.7387,-3.7375,-3.737,-3.7439,-3.7439,-3.744,-3.744,0,0,-3.7399,-3.7408,-3.7402,-3.7403,-3.7405,-3.7396,-3.7381,-3.7375,-3.7369,-3.7366,-3.7354,-3.7339,-3.7352,-3.7348,-3.7356,-3.7345,-3.7313,-3.7359,-3.736,-3.7352,-3.7282,-3.7272,-3.7266,-3.7321,-3.7321,-3.732,-3.7282,0,-3.7355,-3.7331,-3.7344,-3.7318,-3.7309,-3.733,-3.7317,-3.7317,-3.7322,-3.7315,-3.732,-3.731,-3.7327,-3.7325,-3.7315,-3.7319,-3.7299,-3.7322,-3.731,-3.731,-3.7311,-3.726,-3.7249,-3.7213,-3.7278,-3.7277,-3.7276,0,-3.7299,-3.7298,-3.7271,-3.7279,-3.7275,-3.7263,-3.7261,-3.7253,-3.7254,-3.7259,-3.7256,-3.7268,-3.7254,-3.7275,-3.7257,-3.7272,-3.7268,-3.727,-3.7269,-3.7268,-3.7291,-3.7258,-3.7202,-3.7197,-3.7269,-3.7269,-3.727,0,-3.7253,-3.7243,-3.7227,-3.7227,-3.7234,-3.7226,-3.7229,-3.7232,-3.7228,-3.7225,-3.7224,-3.7218,-3.7216,-3.7212,-3.7222,-3.7236,-3.7203,-3.7224,-3.7207,-3.7207,-3.7198,-3.7199,-3.7142,-3.7195,-3.7195,-3.7195,-3.7195,0,-3.7203,-3.7186,-3.7207,-3.7196,-3.7179,-3.7195,-3.7177,-3.7182,-3.7185,-3.7176,-3.7194,-3.7185,-3.72,-3.7193,-3.7201,-3.7186,-3.7184,-3.7187,-3.719,-3.7186,-3.7186,-3.7184,-3.7187,-3.7194,-3.7194,-3.7195,-3.7195,0,-3.7147,-3.716,-3.7144,-3.7155,-3.7157,-3.7144,-3.7152,-3.7143,-3.7151,-3.714,-3.7139,-3.715,-3.7143,-3.7154,-3.7147,-3.7153,-3.7132,-3.7138,-3.7132,-3.7134,-3.7117,-3.7119,-3.7057,-3.705,-3.7107,-3.7107,-3.7106,0,-3.7114,-3.7102,-3.7112,-3.7109,-3.7112,-3.7105,-3.7103,-3.7119,-3.7116,-3.7119,-3.711,-3.7105,-3.7102,-3.709,-3.7097,-3.7093,-3.7099,-3.7078,-3.7099,-3.7096,-3.71,-3.7101,-3.7101,-3.7074,-3.7073,-3.7072,-3.7072,0,-3.7054,-3.7063,-3.7059,-3.706,-3.7057,-3.7057,-3.7058,-3.7054,-3.7072,-3.7067,-3.7062,-3.706,-3.7055,-3.705,-3.7049,-3.7051,-3.7064,-3.7066,-3.7062,-3.7058,-3.7056,-3.7058,-3.7122,-3.7067,-3.7067,-3.7068,-3.7068,-3.7068,-3.701,-3.7001,-3.7009,-3.7005,-3.7009,-3.7011,-3.7004,-3.7013,-3.7009,-3.7008,-3.7017,-3.701,-3.7014,-3.7014,-3.7015,-3.701,-3.7019,-3.7013,-3.7012,-3.701,-3.7008,-3.7057,-3.7009,-3.701,-3.701,-3.701,-3.701,0,-3.6952,-3.6959,-3.6956,-3.6959,-3.6957,-3.6973,-3.6976,-3.6973,-3.6967,-3.697,-3.6968,-3.6963,-3.6959,-3.6968,-3.6966,-3.696,-3.6966,-3.6959,-3.696,-3.696,-3.6999,-3.7003,-3.6954,-3.6954,-3.6954,-3.6954,-3.6954,-3.6954,-3.6922,-3.691,-3.692,-3.691,-3.6916,-3.6911,-3.6912,-3.6914,-3.6917,-3.6912,-3.691,-3.6916,-3.6922,-3.6922,-3.6919,-3.6922,-3.6921,-3.6911,-3.6916,-3.6952,-3.6957,-3.6962,-3.6967,-3.6911,-3.6911,-3.6878,-3.6878,-3.6878]}]]